Regional Weather Roundup
Issued by NWS

Home | Current Version | Previous Version | Text Only | Print | Product List | Glossary Off
Versions: 1 2 3 4 5 6 7 8 9 10 11 12 13 14 15 16 17 18 19 20 21 22 23 24 25 26 27 28 29 30 31 32 33 34 35 36 37 38 39 40 41 42 43 44 45 46 47 48 49 50

625
ASUS43 KDMX 281308
RWRIA

WEATHER ROUNDUP FOR IOWA
NATIONAL WEATHER SERVICE DES MOINES IA
800 AM CDT THU JUL 28 2016

NOTE: "FAIR" INDICATES FEW OR NO CLOUDS BELOW 12,000 FEET WITH NO
SIGNIFICANT WEATHER AND/OR OBSTRUCTIONS TO VISIBILITY.

* - THESE STATIONS ARE NOT NWS STATIONS...THUS NOT UNDER NWS
QUALITY CONTROL.  THEY ALSO DO NOT REPORT WEATHER SUCH
AS PRECIPITATION OR FOG.

IAZ001>003-012>014-020>022-031>034-043>046-281400-
   NORTHWEST IOWA

CITY           SKY/WX    TMP DP  RH WIND       PRES   REMARKS
CARROLL *      SUNNY     68  66  94 NW7       30.02R
CHEROKEE *     SUNNY     65  63  94 CALM      30.05R
DENISON *      SUNNY     68  64  88 CALM      30.02S
LE MARS *      SUNNY     66  61  82 N5        30.05F
SHELDON *      SUNNY     61  59  94 NW5       30.04S
SIOUX CITY     SUNNY     69  62  78 NW6       30.05S
SPENCER        CLOUDY    65  62  90 N8        30.04R
STORM LAKE *   SUNNY     64  64 100 NW6       30.05S
$$

IAZ055>058-069>071-079>083-090>094-281400-
   SOUTHWEST IOWA

CITY           SKY/WX    TMP DP  RH WIND       PRES   REMARKS
ATLANTIC *     SUNNY     70  66  88 N6        30.04R
CLARINDA *       N/A     72  70  94 MISG      30.03S
COUNCIL BLFS * SUNNY     70  68  94 N7        30.04S
CRESTON *      SUNNY     70  66  88 NE6       30.03R
HARLAN  *      SUNNY     68  66  94 W3        30.08R
LAMONI         MOSUNNY   70  69  97 N10       29.99R
RED OAK *      CLOUDY    70  68  94 N7        30.02R
SHENANDOAH *   CLOUDY    70  70 100 NE7       30.02S
$$

IAZ047>049-059>061-072>074-084-281400-
   CENTRAL IOWA

CITY           SKY/WX    TMP DP  RH WIND       PRES   REMARKS
AMES           PTSUNNY   67  67 100 NW8       29.99R
ANKENY *         N/A    N/A N/A N/A MISG        N/A
BOONE *        CLOUDY    66  66 100 NW12      29.99R
CHARITON *       N/A    N/A N/A N/A MISG        N/A
DES MOINES     MOSUNNY   73  66  78 N7        29.97R
GRINNELL*      SUNNY     68  65  92 NW6       29.96R
KNOXVILLE *    SUNNY     72  66  83 NW8       29.95R
MARSHALLTOWN   CLOUDY    66  66 100 NW8       29.96R
NEWTON *       MOSUNNY   70  68  94 MISG      29.96R
PELLA *        SUNNY     70  66  89 NW6       29.96R
PERRY *          N/A     68  67  98 NW5       30.00R
$$

IAZ004>006-015-016-023>025-035-036-281400-
   NORTH CENTRAL IOWA

CITY           SKY/WX    TMP DP  RH WIND       PRES   REMARKS
ALGONA *       CLOUDY    64  63  94 N8G15     30.03R
ESTHERVILLE    CLOUDY    64  63  96 N7        30.04R
FORT DODGE *   CLOUDY    64  63  94 NW6       30.02R
MASON CITY     CLOUDY    67  65  93 N8        30.00R
FOREST CITY *  CLOUDY    66  64  94 N8        30.00R
IOWA FALLS *   CLOUDY    65  64  94 N8        30.00R FOG
$$

IAZ007>011-017>019-026>030-037>042-050>054-066-281400-
   NORTHEAST IOWA

CITY           SKY/WX    TMP DP  RH WIND       PRES   REMARKS
CEDAR RAPIDS   MOSUNNY   69  69 100 NW7       29.92S
CHARLES CITY * CLOUDY    66  66 100 NW6       29.96S
CLINTON *      FOG       69  69 100 W5        29.92R VSB<1/4
DECORAH *      CLOUDY    68  68 100 N6G13     29.92S
DUBUQUE        SUNNY     75  68  78 CALM      29.92S
MONTICELLO *   PTSUNNY   70  68  94 NW6       29.91S
OELWEIN *      CLOUDY    68  66  94 NW7       29.94S FOG
WATERLOO       CLOUDY    67  64  90 NW9       29.93S
$$

IAZ064-065-067-068-078-281400-
   EAST CENTRAL IOWA

CITY           SKY/WX    TMP DP  RH WIND       PRES   REMARKS
DAVENPORT      SUNNY     70  69  97 W3        29.93R FOG
IOWA CITY      SUNNY     71  68  90 NW7       29.93R
MT. PLEASANT * MOSUNNY   75  74  95 NW12      29.93S
MUSCATINE *    MOSUNNY   73  70  88 CALM      29.92S
QUAD CITIES    SUNNY     77  70  79 W3        29.91R
$$

IAZ062-063-075>077-085>089-095>099-281400-
   SOUTHEAST IOWA

CITY           SKY/WX    TMP DP  RH WIND       PRES   REMARKS
BURLINGTON     SUNNY     74  70  87 NW3       29.91S
FAIRFIELD *    SUNNY     72  70  94 VRB6      29.93S
KEOKUK *       MOSUNNY   73  72  94 NW3       29.91S
OSKALOOSA *      N/A     70  68  94 N6        29.94S
CENTERVILLE *    N/A     72  70  94 NW5       29.97S
OTTUMWA        SUNNY     71  68  90 NW6       29.94S
WASHINGTON *   SUNNY     72  70  94 NW7       29.94S
$$

ABBREVIATIONS USED IN REMARKS
   TC - TEMPERATURES IN CELSIUS
  WCI - WIND CHILL INDEX
   HX - HEAT INDEX
  VSB - VISIBILITY
$$





USA.gov is the U.S. government's official web portal to all federal, state and local government web resources and services.